| time (UTC) | temp C | wind direction | speed KPH | gust KPH | rain 1hr cm | rain 24hr cm | rain mn cm | humidity % | barometer mb |
| 20260504081550 | 10 | 190 | 4.8 | 17.7 | 0.00 | 0.00 | 0.00 | 50 | 1015.1 |
| 20260504044559 | 14 | 190 | 4.8 | 19.3 | 0.00 | 0.00 | 0.00 | 36 | 1009.3 |
| 20260504043055 | 14 | 190 | 3.2 | 8.0 | 0.00 | 0.00 | 0.00 | 36 | 1008.8 |
| 20260504041549 | 15 | 190 | 3.2 | 11.3 | 0.00 | 0.00 | 0.00 | 34 | 1008.6 |
| 20260504040058 | 15 | 190 | 3.2 | 9.7 | 0.00 | 0.00 | 0.00 | 34 | 1008.1 |
| 20260504034609 | 15 | 44 | 3.2 | 8.0 | 0.00 | 0.00 | 0.00 | 33 | 1007.7 |
| 20260504033043 | 16 | 45 | 4.8 | 12.9 | 0.00 | 0.00 | 0.00 | 32 | 1007.5 |
| 20260504031544 | 16 | 44 | 4.8 | 11.3 | 0.00 | 0.00 | 0.00 | 31 | 1007.2 |
| 20260504030048 | 16 | 190 | 3.2 | 4.8 | 0.00 | 0.00 | 0.00 | 27 | 1006.9 |
| 20260504024538 | 17 | 190 | 1.6 | 4.8 | 0.00 | 0.00 | 0.00 | 23 | 1006.8 |
| 20260504023039 | 18 | 190 | 1.6 | 4.8 | 0.00 | 0.00 | 0.00 | 22 | 1006.7 |
| 20260504021550 | 19 | 0 | 0.0 | 6.4 | 0.00 | 0.00 | 0.00 | 20 | 1006.7 |
| 20260504020043 | 20 | 190 | 3.2 | 9.7 | 0.00 | 0.00 | 0.00 | 19 | 1006.8 |
| 20260504014543 | 21 | 190 | 1.6 | 6.4 | 0.00 | 0.00 | 0.00 | 19 | 1006.7 |
| 20260504013049 | 22 | 190 | 3.2 | 9.7 | 0.00 | 0.00 | 0.00 | 18 | 1006.6 |
| 20260504011548 | 22 | 190 | 3.2 | 8.0 | 0.00 | 0.00 | 0.00 | 18 | 1006.7 |
| 20260504010052 | 23 | 190 | 4.8 | 12.9 | 0.00 | 0.00 | 0.00 | 18 | 1006.7 |
| 20260504004546 | 23 | 190 | 3.2 | 14.5 | 0.00 | 0.00 | 0.00 | 17 | 1006.7 |
| 20260504003048 | 23 | 190 | 3.2 | 16.1 | 0.00 | 0.00 | 0.00 | 17 | 1006.9 |
| 20260504001600 | 23 | 190 | 4.8 | 22.5 | 0.00 | 0.00 | 0.00 | 17 | 1006.9 |
| 20260504000039 | 23 | 190 | 12.9 | 30.6 | 0.00 | 0.00 | 0.00 | 16 | 1007.2 |
| 20260503234549 | 23 | 190 | 8.0 | 20.9 | 0.00 | 0.00 | 0.00 | 16 | 1007.2 |
| 20260503233045 | 23 | 190 | 16.1 | 27.4 | 0.00 | 0.00 | 0.00 | 15 | 1007.3 |
| 20260503231548 | 23 | 224 | 11.3 | 25.7 | 0.00 | 0.00 | 0.00 | 16 | 1007.3 |
| 20260503230043 | 23 | 190 | 9.7 | 24.1 | 0.00 | 0.00 | 0.00 | 17 | 1007.5 |
| 20260503224541 | 23 | 190 | 9.7 | 27.4 | 0.00 | 0.00 | 0.00 | 16 | 1007.7 |
| 20260503223048 | 23 | 190 | 16.1 | 25.7 | 0.00 | 0.00 | 0.00 | 16 | 1007.9 |
| 20260503221547 | 23 | 224 | 6.4 | 27.4 | 0.00 | 0.00 | 0.00 | 16 | 1008.1 |
| 20260503220049 | 23 | 190 | 8.0 | 27.4 | 0.00 | 0.00 | 0.00 | 17 | 1008.3 |
| 20260503214547 | 23 | 190 | 12.9 | 25.7 | 0.00 | 0.00 | 0.00 | 16 | 1008.3 |
| 20260503213046 | 23 | 224 | 4.8 | 16.1 | 0.00 | 0.00 | 0.00 | 16 | 1008.6 |
| 20260503211548 | 23 | 199 | 9.7 | 24.1 | 0.00 | 0.00 | 0.00 | 16 | 1008.9 |
| 20260503210039 | 23 | 224 | 1.6 | 25.7 | 0.00 | 0.00 | 0.00 | 16 | 1009.0 |
| 20260503204555 | 23 | 190 | 9.7 | 22.5 | 0.00 | 0.00 | 0.00 | 16 | 1009.2 |
| 20260503203049 | 23 | 224 | 3.2 | 19.3 | 0.00 | 0.00 | 0.00 | 16 | 1009.4 |
| 20260503201547 | 23 | 224 | 8.0 | 27.4 | 0.00 | 0.00 | 0.00 | 16 | 1009.6 |
| 20260503200042 | 23 | 224 | 3.2 | 20.9 | 0.00 | 0.00 | 0.00 | 15 | 1009.7 |
| 20260503194545 | 23 | 224 | 4.8 | 25.7 | 0.00 | 0.00 | 0.00 | 16 | 1009.9 |
| 20260503193049 | 23 | 190 | 6.4 | 19.3 | 0.00 | 0.00 | 0.00 | 16 | 1010.0 |
| 20260503191538 | 22 | 224 | 4.8 | 20.9 | 0.00 | 0.00 | 0.00 | 18 | 1010.3 |
| 20260503190049 | 22 | 190 | 4.8 | 29.0 | 0.00 | 0.00 | 0.00 | 18 | 1010.5 |
| 20260503184547 | 22 | 190 | 4.8 | 27.4 | 0.00 | 0.00 | 0.00 | 19 | 1010.7 |
| 20260503183055 | 22 | 224 | 6.4 | 14.5 | 0.00 | 0.00 | 0.00 | 20 | 1011.0 |
| 20260503181552 | 22 | 190 | 3.2 | 16.1 | 0.00 | 0.00 | 0.00 | 22 | 1011.3 |
| 20260503180056 | 21 | 224 | 6.4 | 22.5 | 0.00 | 0.00 | 0.00 | 23 | 1011.7 |
| 20260503174550 | 21 | 224 | 3.2 | 20.9 | 0.00 | 0.00 | 0.00 | 24 | 1011.7 |
| 20260503173104 | 20 | 224 | 1.6 | 14.5 | 0.00 | 0.00 | 0.00 | 26 | 1012.0 |
| 20260503171550 | 20 | 190 | 1.6 | 12.9 | 0.00 | 0.00 | 0.00 | 28 | 1012.0 |